Location: Newark
(41.0400°S, 62.7845°W)
Time: 15:12:53
(UTC+00:00)

Vanguard 2 Rocket - Pass Details

Date: 03 December 2021
Orbit: 553 x 3325 km, 32.9° (Epoch: 23 January)

Event Time Altitude Azimuth Distance (km) Brightness Sun altitude
Rises 13:39:04 0° 268° (W) 6,115 10.8 54.7°
Reaches altitude 10° 13:44:00 10° 273° (W) 4,644 10.3 55.6°
Maximum altitude 13:54:41 42° 337° (NNW) 1,910 9.1 57.4°
Drops below altitude 10° 14:01:00 10° 46° (NE) 2,753 10.0 58.5°
Sets 14:03:12 0° 54° (NE) 3,456 10.3 58.9°
